Content
SEND FEEDBACK

Daily
Averages
Monthly
Summary
United States of America

MOUNT SHASTA, CALIFORNIA


Home > North America > United States > California
Elevation: 1121 meters     Latitude: 41 19N     Longitude: 122 19W

WEATHER
 
SELECT A DAY
Number of Records: 233,509;   Date Range: 1/1/95 - 9/29/14
 
SHARE

PRINT THIS DATA

[ ← Previous Day ]
WEATHER ALMANAC - 8 FEBRUARY, 2014
[ Next Day → ]
[ °F ]   °C
Weather ElementAverageHighLow
Temperature5.9 °C7.8 °C (3:56 pm)4.4 °C (1:56 am)
Dewpoint3.9 °C5 °C (2:56 pm)2.8 °C (1:56 am)
Humidity87.4 %93 % (2:09 am)80 % (11:56 pm)
Barometer1016.3 hPa1019.3 hPa (10:56 pm)1013.5 hPa (2:09 am)
Wind Speed8.5 km/h14.8 km/h (11:56 pm)
Wind Gust37 km/h (6:56 pm)
Weather ElementAverage
Visibility15.4 km
Wind DirectionENE (70.5 °)

Weather ElementTotal
Precipitation9.4 mm
Heating Degree Days12.3 (Base 18.3)
Averaged from 38 records on 8 February, 2014
WEATHER CONDITIONS BREAKOUT
WIND DIRECTION BREAKOUT
WEATHER BY HOUR - 8 FEBRUARY, 2014
[ °F ]   °C
Local TimeTemperatureDewpointHumidityBarometerVisibilityWind DirectionWind SpeedGust SpeedPrecipitationEventsConditions
1:56 AM4.4 °C2.8 °C89 %1016.3 hPa11.3 kmESE (110°)9.3 km/h0.51 mmRainLight Rain
2:09 AM4.4 °C3.3 °C93 %1013.5 hPa16.1 kmVariable9.3 km/h0 mmRainLight Rain
2:56 AM5 °C3.3 °C89 %1016.6 hPa14.5 kmVariable9.3 km/h0.25 mmRainLight Rain
3:56 AM5 °C3.3 °C89 %1017.3 hPa12.9 kmEast (100°)9.3 km/h0.51 mmRainLight Rain
4:56 AM5 °C3.3 °C89 %1017.6 hPa14.5 kmESE (120°)7.4 km/h0.25 mmRainLight Rain
5:56 AM5 °C3.3 °C89 %1017.6 hPa16.1 kmVariable11.1 km/h0 mmOvercast
6:56 AM5 °C3.3 °C89 %1017.9 hPa16.1 kmESE (120°)7.4 km/h0.25 mmRainLight Rain
7:17 AM5 °C3.3 °C89 %1015.2 hPa16.1 kmVariable9.3 km/h0 mmRainLight Rain
7:35 AM5 °C3.3 °C89 %1014.9 hPa16.1 kmVariable7.4 km/h0 mmOvercast
7:45 AM5 °C3.3 °C89 %1014.9 hPa16.1 kmESE (110°)7.4 km/h0 mmOvercast
7:56 AM5 °C3.3 °C89 %1016.9 hPa16.1 kmSE (130°)9.3 km/h0 mmOvercast
8:11 AM5 °C3.9 °C93 %1014.6 hPa16.1 kmSE (140°)7.4 km/h0 mmRainLight Rain
8:56 AM5.6 °C3.9 °C89 %1017.3 hPa14.5 kmSE (130°)11.1 km/h0.25 mmRainLight Rain
9:56 AM5.6 °C3.9 °C89 %1017.3 hPa11.3 kmESE (110°)9.3 km/h0.51 mmRainLight Rain
10:41 AM5.6 °C3.3 °C85 %1014.9 hPa16.1 kmVariable7.4 km/h0.51 mmRainLight Rain
10:56 AM5.6 °C3.3 °C85 %1017.3 hPa16.1 kmVariable5.6 km/h0.76 mmRainLight Rain
11:12 AM5.6 °C3.3 °C85 %1014.6 hPa16.1 kmESE (110°)9.3 km/h0.25 mmRainLight Rain
11:56 AM5.6 °C3.9 °C89 %1016.9 hPa16.1 kmVariable7.4 km/h0.76 mmRainLight Rain
12:56 PM5.6 °C3.9 °C89 %1016.3 hPa16.1 kmVariable7.4 km/h1.27 mmRainLight Rain
1:56 PM5.6 °C3.9 °C89 %1016.6 hPa9.7 kmEast (100°)5.6 km/h1.78 mmRainLight Rain
2:34 PM6.7 °C4.4 °C85 %1014.2 hPa12.9 kmEast (100°)9.3 km/h0.76 mmRainLight Rain
2:56 PM7.2 °C5 °C86 %1016.3 hPa16.1 kmEast (90°)13 km/h0.76 mmOvercast
3:56 PM7.8 °C5 °C83 %1015.9 hPa16.1 kmVariable7.4 km/hMostly Cloudy
4:10 PM7.2 °C5 °C86 %1013.9 hPa16.1 kmVariable7.4 km/hScattered Clouds
4:21 PM7.2 °C4.4 °C82 %1014.2 hPa16.1 kmESE (110°)7.4 km/hScattered Clouds
4:56 PM7.2 °C4.4 °C82 %1016.3 hPa16.1 kmESE (120°)5.6 km/hMostly Cloudy
5:56 PM6.7 °C4.4 °C85 %1015.9 hPa16.1 kmESE (110°)11.1 km/hScattered Clouds
6:07 PM6.1 °C4.4 °C89 %1014.2 hPa16.1 kmVariable7.4 km/hMostly Cloudy
6:18 PM6.1 °C4.4 °C89 %1013.5 hPa16.1 kmESE (110°)13 km/hOvercast
6:56 PM6.7 °C4.4 °C85 %1015.9 hPa16.1 kmESE (120°)9.3 km/h37 km/hOvercast
7:12 PM6.7 °C4.4 °C85 %1014.6 hPa16.1 kmESE (120°)9.3 km/hOvercast
7:56 PM6.1 °C4.4 °C89 %1016.6 hPa16.1 kmESE (110°)11.1 km/hMostly Cloudy
8:43 PM6.1 °C5 °C93 %1015.6 hPa16.1 kmESE (120°)5.6 km/hOvercast
8:56 PM6.7 °C5 °C89 %1017.9 hPa16.1 kmVariable9.3 km/hMostly Cloudy
9:18 PM6.1 °C4.4 °C89 %1016.3 hPa16.1 kmESE (110°)5.6 km/hScattered Clouds
9:56 PM6.7 °C4.4 °C85 %1018.6 hPa16.1 kmEast (90°)9.3 km/hClear
10:56 PM6.7 °C4.4 °C85 %1019.3 hPa16.1 kmCalmOvercast
11:56 PM7.2 °C3.9 °C80 %1019.3 hPa16.1 kmEast (90°)14.8 km/hMostly Cloudy
Hourly data recorded from KMHS, located 0 kilometers away from Mount Shasta, California







STORIES FROM OUR PARTNERS